LRBS Weather Reports


Display with metric or nautical units.
time (UTC)temp
F
wind
direction
speed
MPH
gust
MPH
rain 1hr
in
rain 24hr
in
rain mn
in
humidity
%
barometer
mb
20260506011814 50 70 7.0 0.0 0.00 0.00 0.00 88 1014.0
20260506010314 50 70 7.0 0.0 0.00 0.00 0.00 88 1014.0
20260506004814 52 2.0 0.0 0.00 0.00 0.00 88 1014.0
20260506003430 52 2.0 0.0 0.00 0.00 0.00 88 1014.0
20260506001814 54 60 5.0 0.0 0.00 0.00 0.00 82 1014.0
20260506000315 54 60 5.0 0.0 0.00 0.00 0.00 82 1014.0
20260505234814 55 50 6.0 0.0 0.00 0.00 0.00 77 1014.0
20260505233314 55 50 6.0 0.0 0.00 0.00 0.00 77 1014.0
20260505231814 55 30 5.0 0.0 0.00 0.00 0.00 77 1014.0
20260505230314 55 30 5.0 0.0 0.00 0.00 0.00 77 1014.0
20260505224814 57 40 2.0 0.0 0.00 0.00 0.00 77 1014.0
20260505223314 57 40 2.0 0.0 0.00 0.00 0.00 77 1014.0
20260505221811 57 60 1.0 0.0 0.00 0.00 0.00 72 1014.0
20260505220314 57 60 1.0 0.0 0.00 0.00 0.00 72 1014.0
20260505214815 57 1.0 0.0 0.00 0.00 0.00 72 1014.0
20260505213314 57 1.0 0.0 0.00 0.00 0.00 72 1014.0
20260505211814 59 50 2.0 0.0 0.00 0.00 0.00 68 1014.0
20260505210314 59 50 2.0 0.0 0.00 0.00 0.00 68 1014.0
20260505204816 59 2.0 0.0 0.00 0.00 0.00 72 1014.0
20260505203313 59 2.0 0.0 0.00 0.00 0.00 72 1014.0
20260505201845 63 70 3.0 0.0 0.00 0.00 0.00 56 1014.0
20260505200314 63 70 3.0 0.0 0.00 0.00 0.00 56 1014.0
20260505194814 61 80 3.0 0.0 0.00 0.00 0.00 59 1014.0
20260505193314 61 80 3.0 0.0 0.00 0.00 0.00 59 1014.0
20260505191814 63 110 3.0 0.0 0.00 0.00 0.00 59 1014.0
20260505190313 63 110 3.0 0.0 0.00 0.00 0.00 59 1014.0
20260505184815 63 120 3.0 0.0 0.00 0.00 0.00 59 1014.0
20260505183314 63 120 3.0 0.0 0.00 0.00 0.00 59 1014.0
20260505181814 68 90 3.0 0.0 0.00 0.00 0.00 53 1013.0
20260505180314 68 90 3.0 0.0 0.00 0.00 0.00 53 1013.0
20260505174811 70 1.0 0.0 0.00 0.00 0.00 46 1013.0
20260505173314 70 1.0 0.0 0.00 0.00 0.00 46 1013.0
20260505171814 70 230 5.0 0.0 0.00 0.00 0.00 50 1013.0
20260505170314 70 230 5.0 0.0 0.00 0.00 0.00 50 1013.0
20260505164814 72 250 3.0 0.0 0.00 0.00 0.00 47 1013.0
20260505163314 72 250 3.0 0.0 0.00 0.00 0.00 47 1013.0
20260505161814 73 240 3.0 0.0 0.00 0.00 0.00 47 1013.0
20260505160314 73 240 3.0 0.0 0.00 0.00 0.00 47 1013.0
20260505153314 73 280 3.0 0.0 0.00 0.00 0.00 44 1013.0
20260505151822 75 3.0 0.0 0.00 0.00 0.00 39 1014.0
20260505150314 75 3.0 0.0 0.00 0.00 0.00 39 1014.0
20260505140314 77 6.0 0.0 0.00 0.00 0.00 36 1014.0
20260505124814 75 5.0 0.0 0.00 0.00 0.00 39 1014.0
20260505123314 75 5.0 0.0 0.00 0.00 0.00 39 1014.0
20260505121814 75 5.0 0.0 0.00 0.00 0.00 39 1014.0
20260505120319 73 230 6.0 0.0 0.00 0.00 0.00 41 1015.0
20260505114821 73 230 6.0 0.0 0.00 0.00 0.00 41 1015.0
20260505113345 73 230 6.0 0.0 0.00 0.00 0.00 41 1015.0
20260505111814 73 210 7.0 0.0 0.00 0.00 0.00 38 1015.0
20260505110314 73 210 7.0 0.0 0.00 0.00 0.00 38 1015.0
20260505101815 72 5.0 0.0 0.00 0.00 0.00 47 1015.0
20260505100314 72 5.0 0.0 0.00 0.00 0.00 47 1015.0
20260505094815 72 170 6.0 0.0 0.00 0.00 0.00 44 1015.0
20260505093314 72 170 6.0 0.0 0.00 0.00 0.00 44 1015.0
20260505091814 72 6.0 0.0 0.00 0.00 0.00 44 1016.0
20260505090314 72 6.0 0.0 0.00 0.00 0.00 44 1016.0
20260505084814 70 230 5.0 0.0 0.00 0.00 0.00 46 1016.0
20260505083314 70 230 5.0 0.0 0.00 0.00 0.00 46 1016.0
20260505081814 70 2.0 0.0 0.00 0.00 0.00 50 1016.0
20260505080314 70 2.0 0.0 0.00 0.00 0.00 50 1016.0
20260505074829 68 1.0 0.0 0.00 0.00 0.00 53 1016.0
20260505073314 68 1.0 0.0 0.00 0.00 0.00 53 1016.0
20260505071814 66 1.0 0.0 0.00 0.00 0.00 56 1016.0
20260505070314 66 1.0 0.0 0.00 0.00 0.00 56 1016.0
20260505064814 63 2.0 0.0 0.00 0.00 0.00 59 1016.0
20260505063314 63 2.0 0.0 0.00 0.00 0.00 59 1016.0
20260505061814 61 2.0 0.0 0.00 0.00 0.00 72 1016.0
20260505060314 61 2.0 0.0 0.00 0.00 0.00 72 1016.0
20260505054814 57 1.0 0.0 0.00 0.00 0.00 77 1016.0
20260505053314 57 1.0 0.0 0.00 0.00 0.00 77 1016.0
20260505051814 55 2.0 0.0 0.00 0.00 0.00 77 1016.0
20260505050314 55 2.0 0.0 0.00 0.00 0.00 77 1016.0
20260505040313 50 0 0.0 0.0 0.00 0.00 0.00 88 1015.0
20260505034814 46 1.0 0.0 0.00 0.00 0.00 93 1015.0
20260505033314 46 1.0 0.0 0.00 0.00 0.00 93 1015.0
20260505031814 46 1.0 0.0 0.00 0.00 0.00 93 1015.0
20260505030314 46 1.0 0.0 0.00 0.00 0.00 93 1015.0
20260505024814 46 0 0.0 0.0 0.00 0.00 0.00 93 1015.0
20260505023314 46 0 0.0 0.0 0.00 0.00 0.00 93 1015.0
20260505021814 46 310 3.0 0.0 0.00 0.00 0.00 93 1015.0
20260505020314 46 310 3.0 0.0 0.00 0.00 0.00 93 1015.0
20260505014813 45 80 3.0 0.0 0.00 0.00 0.00 93 1015.0
20260505013314 45 80 3.0 0.0 0.00 0.00 0.00 93 1015.0